Weather History for CYBK - January, 2013

Change the Weather History Date:

Saturday, January 12, 2013

  Actual Average Record
Temperature  
Mean Temperature -39 °F -  
Max Temperature -36 °F -21 °F 3 °F (1997)
Min Temperature -42 °F -33 °F -43 °F (1999)
Degree Days  
Heating Degree Days 104    
Moisture  
Dew Point -45 °F    
Average Humidity 67    
Maximum Humidity 75    
Minimum Humidity 48    
Precipitation  
Precipitation 0.00 in 0.01 in - ()
Sea Level Pressure  
Sea Level Pressure 30.12 in    
Wind  
Wind Speed 2 mph ()    
Max Wind Speed 10 mph    
Max Gust Speed -    
Visibility 14.6 miles    
Events Fog , Snow    
Averages and records for this station are not official NWS values.
T = Trace of Precipitation, MM = Missing Value Source: Averaged Metar Reports

Daily Weather History Graph

Daily Weather History Graph

Search for Another Location

Airport or City:

Trip Planner

Search our weather history database for the weather conditions in past years. The results will help you decide how hot, cold, wet, or windy it might be!

Date:

Astronomy

Jan. 12, 2013 Rise Set
Actual Time 9:59 AM CST 3:06 PM CST
Civil Twilight 8:49 AM CST 4:16 PM CST
Nautical Twilight 7:43 AM CST 5:22 PM CST
Astronomical Twilight 6:45 AM CST 6:21 PM CST
Moon 9:29 AM CST (1/12) 5:34 PM CST (1/12)
Length of Visible Light 7h 27m
Length of Day
5h 07m
New Moon, 1% of the Moon is Illuminated
Jan 12
New Moon
Jan 18
First Quarter
Jan 26
Full
Feb 3
Last Quarter
Feb 10
New

Hourly Weather History & Observations

Time (CST) Temp. Windchill Dew Point Humidity Pressure Visibility Wind Dir Wind Speed Gust Speed Precip Events Conditions
12:00 AM -37 °F - -44 °F 48% 30.10 in 15 mi Calm Calm - -   Scattered Clouds
12:00 AM -36.4 °F - -43.6 °F 67% 30.10 in 15.0 mi Calm Calm - N/A   Partly Cloudy
1:00 AM -36.4 °F - -45.4 °F 61% 30.10 in 15.0 mi Calm Calm - N/A   Partly Cloudy
2:00 AM -36.4 °F - -41.8 °F 75% 30.11 in 15.0 mi Calm Calm - N/A   Partly Cloudy
3:00 AM -36.4 °F - -43.6 °F 67% 30.11 in 15.0 mi Calm Calm - N/A   Partly Cloudy
4:00 AM -38.2 °F - -45.4 °F 67% 30.11 in 15.0 mi Calm Calm - N/A   Partly Cloudy
5:00 AM -38.2 °F - -43.6 °F 74% 30.10 in 15.0 mi Calm Calm - N/A   Partly Cloudy
6:00 AM -37 °F - -43 °F 56% 30.10 in 15 mi Calm Calm - -   Scattered Clouds
6:00 AM -36.4 °F - -43.6 °F 67% 30.10 in 15.0 mi Calm Calm - N/A   Partly Cloudy
7:00 AM -38.2 °F - -43.6 °F 74% 30.10 in 15.0 mi Calm Calm - N/A   Partly Cloudy
8:00 AM -40.0 °F - -45.4 °F 74% 30.10 in 15.0 mi Calm Calm - N/A   Partly Cloudy
9:00 AM -40.0 °F -59.0 °F -45.4 °F 74% 30.10 in 25.0 mi North 5.8 mph - N/A   Partly Cloudy
10:00 AM -38.2 °F - -43.6 °F 74% 30.12 in 25.0 mi Calm Calm - N/A Fog Scattered Clouds
10:42 AM - - - N/A% - 5.0 mi North 3.5 mph - N/A   Scattered Clouds
12:00 PM -38 °F - -45 °F 51% 30.11 in 15 mi North 3.5 mph - -   Partly Cloudy
1:00 PM -38.2 °F -54.5 °F -43.6 °F 74% 30.12 in 15.0 mi North 4.6 mph - N/A Fog Scattered Clouds
2:00 PM -38.2 °F -51.5 °F -45.4 °F 67% 30.12 in 15.0 mi NNE 3.5 mph - N/A   Scattered Clouds
3:00 PM -38.2 °F -58.9 °F -45.4 °F 67% 30.13 in 15.0 mi North 6.9 mph - N/A   Partly Cloudy
4:00 PM -38.2 °F -56.9 °F -45.4 °F 67% 30.13 in 15.0 mi North 5.8 mph - N/A   Partly Cloudy
5:00 PM -40.0 °F -65.9 °F -45.4 °F 74% 30.13 in 15.0 mi North 10.4 mph - N/A   Partly Cloudy
6:00 PM -39 °F - -45 °F 54% 30.14 in 15 mi North 9.2 mph - - Snow Snow
6:00 PM -38.2 °F -60.7 °F -45.4 °F 67% 30.14 in 15.0 mi North 8.1 mph - N/A   Partly Cloudy
7:00 PM -38.2 °F -62.3 °F -45.4 °F 67% 30.16 in 15.0 mi North 9.2 mph - N/A   Partly Cloudy
8:00 PM -38.2 °F -60.7 °F -45.4 °F 67% 30.16 in 15.0 mi North 8.1 mph - N/A   Partly Cloudy
9:00 PM -40.0 °F - -47.2 °F 67% 30.15 in 15.0 mi Calm Calm - N/A   Partly Cloudy
10:00 PM -40.0 °F - -45.4 °F 74% 30.16 in 15.0 mi Calm Calm - N/A   Clear
11:00 PM -38.2 °F -56.9 °F -45.4 °F 67% 30.17 in 15.0 mi WNW 5.8 mph - N/A   Clear